Location: Chippewa Lake
(41.0698°N, 81.9010°W)
Time: 00:17:05
(UTC+00:00)

Cosmos 1697 Rocket - Pass Details

Date: 09 May 2021
Orbit: 832 x 844 km, 71.0° (Epoch: 24 June)

Event Time Altitude Azimuth Distance (km) Brightness Sun altitude
Exits shadow 08:01:23 29° 172° (S) 1,483 3.6 -21.1°
Maximum altitude 08:04:03 54° 108° (ESE) 1,001 3.1 -20.7°
Drops below altitude 10° 08:09:30 10° 33° (NNE) 2,447 6.3 -20.0°
Sets 08:11:59 0° 29° (NNE) 3,385 7.3 -19.7°
